TimePST,TemperatureF,Dew PointF,Humidity,Sea Level PressureIn,VisibilityMPH,Wind Direction,Wind SpeedMPH,Gust SpeedMPH,PrecipitationIn,Events,Conditions,WindDirDegrees,DateUTC
12:53 AM,30.0,28.9,96,30.07,0.8,SSE,6.9,-,0.04,Snow,Light Snow,160,2013-01-07 08:53:00
1:25 AM,30.2,28.4,93,30.00,0.8,South,5.8,-,N/A,Snow,Light Snow,170,2013-01-07 09:25:00
1:53 AM,30.0,28.9,96,30.07,0.8,SSE,6.9,-,0.05,Snow,Light Snow,160,2013-01-07 09:53:00
2:53 AM,30.9,30.0,96,30.05,0.8,SSE,8.1,-,0.05,Snow,Light Snow,150,2013-01-07 10:53:00
3:53 AM,30.9,30.0,96,30.04,0.8,SSE,5.8,-,0.07,Snow,Light Snow,150,2013-01-07 11:53:00
4:53 AM,30.9,30.0,96,30.02,0.8,SSE,5.8,-,0.06,Snow,Light Snow,160,2013-01-07 12:53:00
5:53 AM,30.9,30.9,100,29.98,0.8,SSE,8.1,-,0.05,Snow,Light Snow,160,2013-01-07 13:53:00
6:02 AM,30.2,30.2,100,29.91,1.0,SSE,8.1,-,0.01,Snow,Light Snow,160,2013-01-07 14:02:00
6:27 AM,32.0,30.2,93,29.91,1.0,South,10.4,-,0.01,Snow,Light Snow,170,2013-01-07 14:27:00
6:37 AM,32.0,30.2,93,29.90,0.5,South,10.4,-,0.02,Snow,Light Snow,170,2013-01-07 14:37:00
6:53 AM,32.0,30.9,96,29.96,0.5,South,10.4,-,0.03,Snow,Light Snow,170,2013-01-07 14:53:00
7:53 AM,32.0,30.9,96,29.96,0.5,South,9.2,-,0.03,Snow,Light Snow,170,2013-01-07 15:53:00
8:04 AM,32.0,30.2,93,29.89,0.2,South,10.4,-,0.02,Fog-Snow,Snow,180,2013-01-07 16:04:00
8:53 AM,30.9,30.0,96,29.95,0.2,SSE,10.4,-,0.07,Fog-Snow,Snow,160,2013-01-07 16:53:00
9:38 AM,30.2,30.2,100,29.87,0.2,SSE,11.5,-,0.06,Fog-Snow,Snow,150,2013-01-07 17:38:00
9:53 AM,30.9,30.0,96,29.93,0.2,SSE,11.5,-,0.07,Fog-Snow,Snow,150,2013-01-07 17:53:00
10:53 AM,32.0,30.2,93,29.85,0.2,South,10.4,-,N/A,Snow,Light Snow,170,2013-01-07 18:53:00
10:55 AM,32.0,30.2,93,29.85,0.5,SSE,10.4,-,0.00,Snow,Light Snow,160,2013-01-07 18:55:00
11:01 AM,32.0,30.2,93,29.84,1.0,South,13.8,-,0.01,Snow,Light Snow,170,2013-01-07 19:01:00
11:32 AM,33.8,30.2,87,29.83,1.0,South,13.8,-,N/A,,Light Drizzle,180,2013-01-07 19:32:00
11:42 AM,33.8,32.0,93,29.83,1.0,South,12.7,-,0.01,,Light Drizzle,180,2013-01-07 19:42:00
11:53 AM,33.1,32.0,96,29.87,1.0,South,9.2,17.3,0.01,,Light Drizzle,180,2013-01-07 19:53:00
12:53 PM,33.1,33.1,100,29.85,0.5,South,12.7,-,0.01,,Overcast,180,2013-01-07 20:53:00
1:53 PM,35.1,34.0,96,29.83,0.5,SSW,19.6,-,N/A,,Overcast,210,2013-01-07 21:53:00
2:53 PM,35.6,35.6,100,29.78,0.5,SSW,25.3,35.7,N/A,,Overcast,210,2013-01-07 22:53:00
3:53 PM,36.0,35.1,97,29.84,2.0,SW,31.1,39.1,N/A,,Overcast,220,2013-01-07 23:53:00
4:36 PM,35.6,35.6,100,29.81,7.0,SW,29.9,35.7,0.00,,Overcast,220,2013-01-08 00:36:00
4:53 PM,36.0,35.1,97,29.87,7.0,SW,27.6,34.5,0.00,,Overcast,220,2013-01-08 00:53:00
5:46 PM,35.6,35.6,100,29.83,10.0,SW,20.7,34.5,0.01,,Scattered Clouds,220,2013-01-08 01:46:00
5:53 PM,36.0,35.1,97,29.89,10.0,SW,21.9,-,0.01,,Scattered Clouds,220,2013-01-08 01:53:00
6:53 PM,36.0,35.1,97,29.86,10.0,SW,26.5,34.5,N/A,,Scattered Clouds,220,2013-01-08 02:53:00
7:53 PM,36.0,34.0,93,29.88,10.0,SW,25.3,-,N/A,,Scattered Clouds,220,2013-01-08 03:53:00
8:53 PM,36.0,33.1,89,29.90,10.0,SW,24.2,-,N/A,,Scattered Clouds,220,2013-01-08 04:53:00
9:53 PM,36.0,32.0,86,29.93,10.0,SW,17.3,-,N/A,,Mostly Cloudy,220,2013-01-08 05:53:00
10:53 PM,36.0,30.9,82,29.96,7.0,WSW,20.7,-,N/A,,Scattered Clouds,240,2013-01-08 06:53:00
11:53 PM,36.0,30.9,82,29.99,10.0,WSW,19.6,-,N/A,,Mostly Cloudy,240,2013-01-08 07:53:00